Regional Weather Roundup
Issued by NWS

Home | Current Version | Previous Version | Text Only | Print | Product List | Glossary On
Versions: 1 2 3 4 5 6 7 8 9 10 11 12 13 14 15 16 17 18 19 20 21 22 23 24 25 26 27 28 29 30 31 32 33 34 35 36 37 38 39 40 41 42 43 44 45 46 47 48 49 50
000
ASUS43 KLSX 260007
RWRMO

WEATHER SUMMARY FOR MISSOURI
NATIONAL WEATHER SERVICE SPRINGFIELD MO
600 PM CST SAT FEB 25 2017

NOTE: "FAIR" INDICATES FEW OR NO CLOUDS BELOW 12,000 FEET WITH NO
       SIGNIFICANT WEATHER AND/OR OBSTRUCTIONS TO VISIBILITY.
       CURRENT SKY AND/OR WEATHER CONDITIONS ARE NOT AVAILABLE FOR
       CHILLICOTHE AND FARMINGTON.

MOZ001>031-035>038-043-044-053-054-260100-
...NORTHERN AND WESTERN MISSOURI...

CITY           SKY/WX    TMP DP  RH WIND       PRES   REMARKS
KANSAS CTY INT PTCLDY    35  10  35 S7        30.05F WCI  29
6HR MIN TEMP:  34; 6HR MAX TEMP:  41;

KANSAS C DTWN  CLEAR     39   8  27 S3        30.06F
6HR MIN TEMP:  36; 6HR MAX TEMP:  44;

LEE`S SUMMIT   CLEAR     38   9  30 SW7       30.06F
6HR MIN TEMP:  34; 6HR MAX TEMP:  42;

ST JOSEPH      MOCLDY    37  17  44 S7        30.05F
6HR MIN TEMP:  30; 6HR MAX TEMP:  41;

CHILLICOTHE      N/A     36  11  35 SW3       30.09F
6HR MIN TEMP:  34; 6HR MAX TEMP:  40;

KIRKSVILLE     CLEAR     32  11  41 W3        30.07F
6HR MIN TEMP:  31; 6HR MAX TEMP:  38;


$$
MOZ066>068-077>081-088>096-101>105-260100-
...SOUTHWEST MISSOURI...

CITY           SKY/WX    TMP DP  RH WIND       PRES   REMARKS
SPRINGFIELD    CLEAR     39  13  34 W3        30.09F
6HR MIN TEMP:  37; 6HR MAX TEMP:  44;

JOPLIN         CLEAR     42  12  29 CALM      30.11F
6HR MIN TEMP:  36; 6HR MAX TEMP:  45;

BRANSON        CLEAR     41  10  28 CALM      30.11S

$$
MOZ032>034-039>042-045>050-055>058-069>072-260100-
...CENTRAL MISSOURI...

CITY           SKY/WX    TMP DP  RH WIND       PRES   REMARKS
COLUMBIA       CLEAR     37   9  31 NW5       30.10S
6HR MIN TEMP:  34; 6HR MAX TEMP:  41;

JEFFERSON CITY CLEAR     39  11  31 NW5       30.11F
6HR MIN TEMP:  33; 6HR MAX TEMP:  41;

ROLLA          CLEAR     35  10  35 NW5       30.09R
6HR MIN TEMP:  34; 6HR MAX TEMP:  41; 6HR PCP: TRACE;

SEDALIA        CLEAR     40   7  25 CALM      30.10F
6HR MIN TEMP:  36; 6HR MAX TEMP:  44;

WHITEMAN AFB   CLEAR     38   8  28 CALM      30.07F
WARRENSBURG    CLEAR     39  10  30 SW5       30.08F
OSAGE BEACH    CLEAR     38  10  31 CALM      30.11F

$$
MOZ051-052-059>065-260100-
...EAST CENTRAL MISSOURI...

CITY           SKY/WX    TMP DP  RH WIND       PRES   REMARKS
ST LOUIS INTL  PTCLDY    37  11  34 NW8       30.11R
6HR MIN TEMP:  36; 6HR MAX TEMP:  42;

SPIRIT OF STL  CLEAR     37  10  32 NW8       30.11R
6HR MIN TEMP:  36; 6HR MAX TEMP:  42;

ST CHARLES     PTCLDY    37  11  34 W10       30.11R WCI  30
6HR MIN TEMP:  34; 6HR MAX TEMP:  40;


$$
MOZ072>076-082>087-097>100-106>115-260100-
...SOUTH CENTRAL AND SOUTHEAST MISSOURI...

CITY           SKY/WX    TMP DP  RH WIND       PRES   REMARKS
CAPE GIRARDEAU CLEAR     40  13  33 NW8       30.10S
6HR MIN TEMP:  39; 6HR MAX TEMP:  45;

FARMINGTON     CLEAR     37   9  31 NW7       30.10S
6HR MIN TEMP:  36; 6HR MAX TEMP:  41;

POPLAR BLUFF   CLEAR     43  12  28 NW8       30.11R
6HR MIN TEMP:  40; 6HR MAX TEMP:  47;

WEST PLAINS    CLEAR     40  10  29 NW6       30.10S
6HR MIN TEMP:  40; 6HR MAX TEMP:  46;


$$



USA.gov is the U.S. government's official web portal to all federal, state and local government web resources and services.